Miscellaneous Local Product
Issued by NWS Hastings, NE

Home | Current Version | Previous Version | Text Only | Print | Product List | Glossary Off
Versions: 1 2 3 4 5 6 7 8 9 10 11 12 13 14 15 16 17 18 19 20 21 22 23 24 25 26 27 28 29 30 31 32 33 34 35 36 37 38 39 40 41 42 43 44 45 46 47 48 49 50

000
AXUS43 KGID 261702
MISGRI

GID CWA HOURLY WEATHER ROUNDUP
NATIONAL WEATHER SERVICE HASTINGS NE
1200 PM CDT THU MAR 26 2015

NOTE: "FAIR" INDICATES FEW OR NO CLOUDS BELOW 12,000 FEET WITH NO
SIGNIFICANT WEATHER AND/OR OBSTRUCTIONS TO VISIBILITY.

...SOUTH CENTRAL NEBRASKA...

CITY           SKY/WX    TMP DP  RH WIND       PRES   REMARKS
GRAND ISLAND   PTSUNNY   44  24  45 SW5       30.18F
HASTINGS       PTSUNNY   44  25  47 SW6       30.17F
KEARNEY        CLOUDY    45  25  45 S9        30.17F
ORD            CLOUDY    41  23  48 S8        30.13F
YORK           MOSUNNY   41  27  56 W3        30.21F
AURORA         MOSUNNY   40  26  56 CALM      30.19F
LEXINGTON      CLOUDY    44  26  49 SW13      30.15F
HOLDREGE       CLOUDY    41  24  50 SW12      30.17F
HEBRON         SUNNY     44  25  47 W5        30.22F

...NEBRASKA PANHANDLE...

CITY           SKY/WX    TMP DP  RH WIND       PRES   REMARKS
CHADRON        CLOUDY    48  31  51 NW18G28   30.13S
ALLIANCE       CLOUDY    50  28  42 NW26      30.12R
SCOTTSBLUFF    CLOUDY    48  27  44 NW17      30.16S
SIDNEY         CLOUDY    51  23  33 NW28G36   30.14S

...WESTERN AND NORTH CENTRAL NEBRASKA...

CITY           SKY/WX    TMP DP  RH WIND       PRES   REMARKS
VALENTINE      CLOUDY    39  27  62 S3        30.07F
AINSWORTH      CLOUDY    39  26  60 S8        30.09F WCI  33
ONEILL         CLOUDY    42  24  49 SW6       30.15F
BROKEN BOW     CLOUDY    40  26  57 S10       30.11F WCI  33
IMPERIAL         N/A     54  25  32 NW22      30.12F
NORTH PLATTE   CLOUDY    48  26  42 SW9       30.09F
MCCOOK         MOSUNNY   50  30  46 SW10      30.14F

...EASTERN NEBRASKA...

CITY           SKY/WX    TMP DP  RH WIND       PRES   REMARKS
NORFOLK        MOSUNNY   42  22  44 VRB3      30.17F
SO SIOUX CITY  MOSUNNY   42  22  44 N10       30.20F
TEKAMAH        SUNNY     46  23  40 NW15G29   30.20F
COLUMBUS       MOSUNNY   43  21  42 W8        30.21F
ALBION         PTSUNNY   42  22  46 S3        30.17F
OMAHA EPPLEY   MOSUNNY   44  24  45 N9        30.21F
OFFUTT AFB     SUNNY     44  22  41 NW12      30.20F
MILLARD        SUNNY     42  22  46 NW10      30.22F
LINCOLN        SUNNY     45  23  42 W5        30.23F
NEBRASKA CITY  SUNNY     42  23  46 N13       30.22F
BEATRICE       SUNNY     42  24  50 CALM      30.23F
FALLS CITY     SUNNY     44  28  53 NW12      30.21F

...NORTHERN KANSAS...

CITY           SKY/WX    TMP DP  RH WIND       PRES   REMARKS
GOODLAND       CLOUDY    55  25  31 NW17      30.16F
HILL CITY      PTSUNNY   47  32  56 SW6       30.20F
NORTON         SUNNY     48  27  43 S14       30.16F
PHILLIPSBURG   SUNNY     48  32  53 S9        30.21F
SMITH CENTER   SUNNY     43  28  56 SW5       30.21F
BELOIT         SUNNY     48  25  40 NW6       30.21F
HAYS           SUNNY     46  27  46 SW8       30.23F
RUSSELL        SUNNY     45  30  55 SW6       30.21F
CONCORDIA      SUNNY     44  25  47 CALM      30.21F
SALINA         SUNNY     45  27  49 VRB3      30.24F
TOPEKA         SUNNY     46  29  51 N12       30.23F



USA.gov is the U.S. government's official web portal to all federal, state and local government web resources and services.